Location: Oriwa
(40.7500°S, 175.3333°E)
Time: 12:15:18
(UTC+00:00)

Envisat - Pass Details

Date: 03 February 2023
Orbit: 763 x 765 km, 98.2° (Epoch: 31 March)

Event Time Altitude Azimuth Distance (km) Brightness Sun altitude
Exits shadow 16:10:39 13° 344° (NNW) 2,120 4.8 -13.7°
Maximum altitude 16:14:53 39° 278° (W) 1,145 3.5 -13.0°
Drops below altitude 10° 16:19:41 10° 209° (SSW) 2,331 5.6 -12.3°
Sets 16:22:10 0° 201° (SSW) 3,266 6.4 -11.9°
